HS1AL-1 Weather Reports


time (UTC)temp
C
wind
direction
speed
KPH
gust
KPH
rain 1hr
cm
rain 24hr
cm
rain mn
cm
humidity
%
barometer
mb
20260505031822 35 0 0.0 0.0 0.00 0.00 0.00 47 1010.0
20260505030254 35 0 0.0 0.0 0.00 0.00 0.00 50 1010.0
20260505024727 34 0 0.0 0.0 0.00 0.00 0.00 51 1010.0
20260505023202 34 0 0.0 0.0 0.00 0.00 0.00 51 1010.0
20260505021634 34 0 0.0 0.0 0.00 0.00 0.00 52 1010.0
20260505020105 33 0 0.0 0.0 0.00 0.00 0.00 53 1010.0
20260505014534 33 0 0.0 0.0 0.00 0.00 0.00 54 1010.0
20260505013004 33 0 0.0 0.0 0.00 0.00 0.00 54 1010.0
20260505011435 33 0 0.0 0.0 0.00 0.00 0.00 55 1010.0
20260505005908 32 0 0.0 0.0 0.00 0.00 0.00 56 1010.0
20260505004332 32 0 0.0 0.0 0.00 0.00 0.00 56 1010.0
20260505002758 32 0 0.0 0.0 0.00 0.00 0.00 57 1009.0
20260505001228 32 0 0.0 0.0 0.00 0.00 0.00 57 1009.0
20260504235700 32 0 0.0 0.0 0.00 0.00 0.00 55 1009.0
20260504234133 32 0 0.0 0.0 0.00 0.00 0.00 55 1009.0
20260504232604 32 0 0.0 0.0 0.00 0.00 0.00 57 1008.0
20260504231035 31 0 0.0 0.0 0.00 0.00 0.00 57 1008.0
20260504225501 32 0 0.0 0.0 0.00 0.00 0.00 56 1008.0
20260504223932 32 0 0.0 0.0 0.00 0.00 0.00 54 1007.0
20260504222402 32 0 0.0 0.0 0.00 0.00 0.00 53 1007.0
20260504220832 32 0 0.0 0.0 0.00 0.00 0.00 53 1007.0
20260504215301 32 0 0.0 0.0 0.00 0.00 0.00 54 1007.0
20260504213730 32 0 0.0 0.0 0.00 0.00 0.00 54 1007.0
20260504212201 32 0 0.0 0.0 0.00 0.00 0.00 54 1007.0
20260504210833 32 0 0.0 0.0 0.00 0.00 0.00 54 1008.0
20260504205304 32 0 0.0 0.0 0.00 0.00 0.00 54 1008.0
20260504203734 32 0 0.0 0.0 0.00 0.00 0.00 55 1008.0
20260504202203 32 0 0.0 0.0 0.00 0.00 0.00 55 1008.0
20260504200636 32 0 0.0 0.0 0.00 0.00 0.00 58 1008.0
20260504195109 32 0 0.0 0.0 0.00 0.00 0.00 59 1009.0
20260504193540 32 0 0.0 0.0 0.00 0.00 0.00 58 1009.0
20260504192012 32 0 0.0 0.0 0.00 0.00 0.00 56 1009.0
20260504190442 32 0 0.0 0.0 0.00 0.00 0.00 55 1009.0
20260504184916 32 0 0.0 0.0 0.00 0.00 0.00 54 1009.0
20260504183346 32 0 0.0 0.0 0.00 0.00 0.00 54 1009.0
20260504181819 33 0 0.0 0.0 0.00 0.00 0.00 52 1009.0
20260504180252 33 0 0.0 0.0 0.00 0.00 0.00 52 1009.0
20260504174725 33 0 0.0 0.0 0.00 0.00 0.00 53 1009.0
20260504173155 34 0 0.0 0.0 0.00 0.00 0.00 53 1009.0
20260504171627 33 0 0.0 0.0 0.00 0.00 0.00 54 1010.0
20260504141050 35 0 0.0 0.0 0.00 0.00 0.00 51 1008.0
20260504081902 37 0 0.0 0.0 0.00 0.00 0.00 47 1005.0
20260504080335 37 0 0.0 0.0 0.00 0.00 0.00 42 1005.0
20260504070138 37 0 0.0 0.0 0.00 0.00 0.00 49 1006.0
20260504045748 38 0 0.0 0.0 0.00 0.00 0.00 49 1008.0
20260504044219 37 0 0.0 0.0 0.00 0.00 0.00 48 1008.0
20260504042653 38 0 0.0 0.0 0.00 0.00 0.00 42 1008.0
20260504041125 38 0 0.0 0.0 0.00 0.00 0.00 41 1008.0
20260504035557 38 0 0.0 0.0 0.00 0.00 0.00 41 1008.0
20260504034027 38 0 0.0 0.0 0.00 0.00 0.00 41 1008.0